AAL175A KDFW-RJTT

Flight info

Callsign AAL175A
Flight time N/A
Altitude 32000
Route HUDAD2 HUDAD DCT PNH DCT OWUPO DCT HBU DCT TWF/N0483F340 J15 BOI DCT JOTBA DCT BTG DCT KS09A DCT WIDEN DCT 47N130W 49N140W 52N150W 54N160W/N0488F360 54N170W 53N180E DCT AAMYY DCT AKISU/N0482F380 DCT KALIG KALNA OTR5 ADNAP Y807 POLIX
Aircraft B77W/H-SDE1E2E3FGHIJ2J3J4J5M1RWXY/LB1D1

Departure

Time 2026-05-03 21:01
Airport Dallas Fort Worth International Airport (KDFW)

Arrival

Time N/A
Airport Tokyo Haneda International Airport (RJTT)
Time Latitude Longitude Altitude Speed Heading
2026-05-03 20:27 32.89769 -97.04571 603 ft 0 kts 91°
2026-05-03 20:49 32.89770 -97.04597 603 ft 4 kts 89°
2026-05-03 20:49 32.89769 -97.04629 603 ft 4 kts 88°
2026-05-03 20:50 32.89769 -97.04655 603 ft 2 kts 91°
2026-05-03 20:50 32.89768 -97.04686 602 ft 4 kts 86°
2026-05-03 20:50 32.89768 -97.04702 602 ft 0 kts 88°
2026-05-03 20:54 32.89778 -97.04690 602 ft 4 kts 26°
2026-05-03 20:54 32.89861 -97.04730 601 ft 10 kts 327°
2026-05-03 20:54 32.89925 -97.04759 603 ft 10 kts 350°
2026-05-03 20:55 32.89999 -97.04763 604 ft 11 kts 359°
2026-05-03 20:55 32.90089 -97.04763 603 ft 15 kts
2026-05-03 20:55 32.90201 -97.04762 601 ft 17 kts
2026-05-03 20:55 32.90324 -97.04763 602 ft 18 kts 360°
2026-05-03 20:56 32.90449 -97.04763 602 ft 18 kts 360°
2026-05-03 20:56 32.90574 -97.04762 602 ft 18 kts
2026-05-03 20:56 32.90698 -97.04761 602 ft 18 kts
2026-05-03 20:56 32.90823 -97.04761 603 ft 18 kts
2026-05-03 20:57 32.90922 -97.04760 615 ft 10 kts
2026-05-03 20:57 32.90990 -97.04766 618 ft 10 kts 344°
2026-05-03 20:57 32.91033 -97.04784 623 ft 10 kts 344°
2026-05-03 20:57 32.91104 -97.04792 619 ft 11 kts 359°
2026-05-03 20:58 32.91182 -97.04792 621 ft 11 kts
2026-05-03 20:58 32.91268 -97.04792 623 ft 15 kts
2026-05-03 20:58 32.91396 -97.04792 622 ft 19 kts
2026-05-03 20:58 32.91482 -97.04828 621 ft 13 kts 301°
2026-05-03 20:59 32.91495 -97.04931 625 ft 13 kts 269°
2026-05-03 20:59 32.91491 -97.05033 623 ft 11 kts 258°
2026-05-03 20:59 32.91453 -97.05069 632 ft 0 kts 188°
2026-05-03 21:00 32.91444 -97.05070 631 ft 8 kts 186°
2026-05-03 21:00 32.91336 -97.05076 624 ft 45 kts 181°
2026-05-03 21:00 32.90505 -97.05079 603 ft 131 kts 180°
2026-05-03 21:00 32.89408 -97.05080 613 ft 181 kts 180°
2026-05-03 21:01 32.88083 -97.05106 852 ft 192 kts 182°
2026-05-03 21:01 32.86715 -97.05118 1291 ft 203 kts 181°
2026-05-03 21:01 32.85285 -97.05204 1834 ft 207 kts 192°
2026-05-03 21:01 32.83920 -97.05760 2296 ft 211 kts 202°
2026-05-03 21:02 32.82491 -97.06344 2515 ft 227 kts 199°
2026-05-03 21:02 32.80951 -97.06909 3016 ft 234 kts 198°
2026-05-03 21:02 32.79373 -97.07496 3568 ft 237 kts 203°
2026-05-03 21:02 32.78025 -97.08591 4125 ft 239 kts 230°
2026-05-03 21:03 32.77172 -97.10302 4658 ft 243 kts 248°
2026-05-03 21:03 32.76725 -97.12288 5099 ft 253 kts 256°
2026-05-03 21:03 32.76468 -97.14327 5803 ft 250 kts 266°
2026-05-03 21:03 32.76622 -97.16442 6164 ft 262 kts 273°
2026-05-03 21:04 32.76802 -97.18627 6662 ft 268 kts 272°
2026-05-03 21:04 32.76951 -97.20845 7257 ft 270 kts 271°
2026-05-03 21:04 32.77092 -97.23071 7852 ft 271 kts 272°
2026-05-03 21:04 32.77546 -97.25246 8275 ft 277 kts 293°
2026-05-03 21:05 32.78478 -97.27277 8734 ft 282 kts 296°
2026-05-03 21:05 32.79403 -97.29289 9342 ft 282 kts 296°
2026-05-03 21:05 32.80343 -97.31353 9872 ft 286 kts 296°
2026-05-03 21:05 32.81290 -97.33448 10320 ft 293 kts 296°
2026-05-03 21:06 32.82284 -97.35658 10442 ft 312 kts 296°
2026-05-03 21:06 32.83334 -97.38005 10563 ft 331 kts 296°
2026-05-03 21:06 32.84445 -97.40493 10726 ft 350 kts 297°
2026-05-03 21:06 32.85609 -97.43106 11026 ft 364 kts 296°
2026-05-03 21:07 32.86798 -97.45775 11513 ft 373 kts 296°
2026-05-03 21:07 32.88018 -97.48519 12104 ft 380 kts 296°
2026-05-03 21:07 32.89252 -97.51300 12984 ft 381 kts 296°
2026-05-03 21:07 32.90492 -97.54098 13820 ft 383 kts 296°
2026-05-03 21:08 32.91744 -97.56923 14440 ft 389 kts 296°
2026-05-03 21:08 32.93010 -97.59782 15174 ft 391 kts 296°
2026-05-03 21:08 32.94273 -97.62637 16093 ft 387 kts 296°
2026-05-03 21:08 32.95526 -97.65472 16838 ft 390 kts 297°
2026-05-03 21:09 32.96800 -97.68359 17361 ft 398 kts 297°
2026-05-03 21:09 32.98091 -97.71286 18084 ft 399 kts 297°
2026-05-03 21:09 32.99377 -97.74233 18725 ft 403 kts 296°
2026-05-03 21:09 33.00556 -97.77226 19327 ft 405 kts 294°
2026-05-03 21:10 33.01695 -97.80295 19938 ft 406 kts 293°
2026-05-03 21:10 33.02824 -97.83386 20568 ft 407 kts 293°
2026-05-03 21:10 33.03962 -97.86491 21181 ft 409 kts 294°
2026-05-03 21:10 33.05107 -97.89596 21752 ft 411 kts 294°
2026-05-03 21:11 33.06267 -97.92719 22334 ft 413 kts 294°
2026-05-03 21:11 33.07433 -97.95849 22909 ft 415 kts 294°
2026-05-03 21:11 33.08609 -97.98999 23466 ft 417 kts 294°
2026-05-03 21:11 33.09791 -98.02167 23983 ft 419 kts 294°
2026-05-03 21:12 33.10976 -98.05343 24486 ft 419 kts 294°
2026-05-03 21:12 33.12159 -98.08522 25001 ft 419 kts 294°
2026-05-03 21:12 33.13344 -98.11707 25501 ft 420 kts 294°
2026-05-03 21:12 33.14530 -98.14898 25975 ft 421 kts 294°
2026-05-03 21:13 33.15720 -98.18102 26433 ft 422 kts 294°
2026-05-03 21:13 33.16909 -98.21307 26877 ft 423 kts 294°